OpenBCM V1.13 (Linux)

Packet Radio Mailbox

DB0FHN

[JN59NK Nuernberg]

 Login: GUEST





  
CX7BY  > KEPS     08.03.03 10:41l 151 Lines 3939 Bytes #999 (0) @ AMSAT
BID : ORB03065.O
Read: DB0FHN GUEST
Subj: Orbital Elements  03065.OSCAR
Path: DB0FHN<DB0RGB<OK0PPL<RZ6HXA<WA7V<WB0TAX<SP7MGD<7M3TJZ<CX2ACB<CX7BY
Sent: 030307/0458Z @:CX7BY.MVD.URY.SA #:31964 [Montevideo] FBB $:ORB03065.O
From: CX7BY@CX7BY.MVD.URY.SA
To  : KEPS@AMSAT


HR AMSAT ORBITAL ELEMENTS FOR OSCAR SATELLITES
FROM WA5QGD FORT WORTH,TX March 6, 2003
SEND SUBSCRIBE/UNSUBSCRIBE TO majordomo@amsat.org ONLY
BID: ORB03065.O
TO ALL RADIO AMATEURS BT

Satellite: AO-07
Catalog number: 07530
Epoch time:      03064.69532964
Element set:    0177
Inclination:      101.7574 deg
RA of node:       112.3396 deg
Eccentricity:    0.0012280
Arg of perigee:   048.6705 deg
Mean anomaly:     311.5410 deg
Mean motion:   12.53564615 rev/day
Decay rate:       -2.9e-07 rev/day^2
Epoch rev:           29508
Checksum:              287

Satellite: AO-10
Catalog number: 14129
Epoch time:      03053.29347507
Element set:    0920
Inclination:      025.9661 deg
RA of node:       163.6642 deg
Eccentricity:    0.6025305
Arg of perigee:   329.8586 deg
Mean anomaly:     006.1874 deg
Mean motion:   02.05867335 rev/day
Decay rate:      -1.35e-06 rev/day^2
Epoch rev:           14811
Checksum:              296

Satellite: UO-11
Catalog number: 14781
Epoch time:      03065.38517688
Element set:      88
Inclination:       98.1192 deg
RA of node:        39.4325 deg
Eccentricity:    0.0009551
Arg of perigee:   152.7767 deg
Mean anomaly:     207.3964 deg
Mean motion:   14.78038247 rev/day
Decay rate:      1.517e-05 rev/day^2
Epoch rev:            1857
Checksum:              329

Satellite: RS-10/11
Catalog number: 18129
Epoch time:      03065.25497969
Element set:     211
Inclination:       82.9266 deg
RA of node:       134.9643 deg
Eccentricity:    0.0011127
Arg of perigee:   175.7953 deg
Mean anomaly:     184.3294 deg
Mean motion:   13.72702311 rev/day
Decay rate:        5.3e-07 rev/day^2
Epoch rev:           78666
Checksum:              315

Satellite: FO-20
Catalog number: 20480
Epoch time:      03065.83872885
Element set:     467
Inclination:       99.0482 deg
RA of node:        25.5232 deg
Eccentricity:    0.0540294
Arg of perigee:   327.0591 deg
Mean anomaly:      29.7905 deg
Mean motion:   12.83330884 rev/day
Decay rate:       -1.0e-08 rev/day^2
Epoch rev:           61260
Checksum:              299

Satellite: RS-12/13
Catalog number: 21089
Epoch time:      03065.77501658
Element set:     495
Inclination:       82.9247 deg
RA of node:       169.3595 deg
Eccentricity:    0.0027599
Arg of perigee:   241.1551 deg
Mean anomaly:     118.6834 deg
Mean motion:   13.74405891 rev/day
Decay rate:        6.3e-07 rev/day^2
Epoch rev:           60601
Checksum:              325

Satellite: RS-15
Catalog number: 23439
Epoch time:      03064.90340278
Element set:    0694
Inclination:      064.8179 deg
RA of node:       016.6824 deg
Eccentricity:    0.0146589
Arg of perigee:   112.1421 deg
Mean anomaly:     249.5130 deg
Mean motion:   11.27547766 rev/day
Decay rate:       -3.8e-07 rev/day^2
Epoch rev:           33732
Checksum:              310

Satellite: FO-29
Catalog number: 24278
Epoch time:      03064.92497493
Element set:    0579
Inclination:      098.5394 deg
RA of node:       214.0618 deg
Eccentricity:    0.0350582
Arg of perigee:   176.5620 deg
Mean anomaly:     183.8047 deg
Mean motion:   13.52874008 rev/day
Decay rate:        4.7e-07 rev/day^2
Epoch rev:           32338
Checksum:              335

Satellite: SO-33
Catalog number: 25509
Epoch time:      03064.40904754
Element set:     794
Inclination:       31.4300 deg
RA of node:        69.3537 deg
Eccentricity:    0.0356938
Arg of perigee:    72.4762 deg
Mean anomaly:     291.4595 deg
Mean motion:   14.27450749 rev/day
Decay rate:       5.51e-06 rev/day^2
Epoch rev:           22743
Checksum:              316

Satellite: AO-40
Catalog number: 26609
Epoch time:      03062.14261750
Element set:     313
Inclination:        8.2009 deg
RA of node:        61.8922 deg
Eccentricity:    0.7947545
Arg of perigee:   149.3793 deg
Mean anomaly:     302.8222 deg
Mean motion:    1.25596061 rev/day
Decay rate:      -3.14e-06 rev/day^2
Epoch rev:            1073
Checksum:              279



Read previous mail | Read next mail


 14.09.2026 03:49:46lGo back Go up